This demonstration page uses our WeatherBlox Daily Observations layout. Learn more.

Hourly Observations for December 20, 2019

Temp ( °F °C ) Dew Point ( °F °C ) Humidity (%) Winds ( mph kmh ) Pressure ( in mb ) Visibility ( mi km ) Precip ( " mm )
12:15 am 00:15 Clear 30 -0.9 18 -7.7 60 60 S 10 17 30.11 1020 10 16.0934 0 0
12:35 am 00:35 Clear 31 -0.6 17 -8.1 57 57 S 9 15 30.11 1020 10 16.0934 0 0
12:55 am 00:55 Clear 30 -1.3 18 -8 61 61 S 6 9 30.11 1020 10 16.0934 0 0
1:15 am 01:15 Clear 31 -0.6 17 -8.5 56 56 SW 3 6 30.11 1020 10 16.0934 0 0
1:35 am 01:35 Clear 29 -1.4 16 -8.8 58 58 Calm 30.13 1020 10 16.0934 0 0
1:55 am 01:55 Clear 29 -1.6 16 -8.8 58 58 Calm 30.13 1020 10 16.0934 0 0
2:15 am 02:15 Clear 25 -4.1 16 -8.7 71 71 Calm 30.15 1021 10 16.0934 0 0
2:35 am 02:35 Clear 25 -3.7 17 -8.3 71 71 Calm 30.17 1022 10 16.0934 0 0
2:55 am 02:55 Clear 27 -2.7 18 -7.6 69 69 NW 6 9 30.17 1022 10 16.0934 0 0
3:15 am 03:15 Clear 28 -2.5 20 -6.5 74 74 N 6 9 30.16 1021 10 16.0934 0 0
3:35 am 03:35 Clear 26 -3.3 21 -6.3 80 80 NNW 9 15 30.18 1022 10 16.0934 0 0
3:55 am 03:55 Clear 26 -3.6 21 -6.1 83 83 NNW 8 13 30.19 1022 10 16.0934 0 0
4:15 am 04:15 Clear 26 -3.5 22 -5.8 84 84 NNW 8 13 30.2 1023 10 16.0934 0 0
4:35 am 04:35 Clear 25 -3.7 22 -5.8 86 86 NNW 9 15 30.2 1023 10 16.0934 0 0
4:55 am 04:55 Clear 24 -4.2 21 -6 87 87 NNW 8 13 30.22 1023 10 16.0934 0 0
5:15 am 05:15 Clear 24 -4.3 21 -6 88 88 NNW 9 15 30.22 1023 10 16.0934 0 0
5:35 am 05:35 Clear 24 -4.2 21 -6 87 87 NNW 9 15 30.23 1024 10 16.0934 0 0
5:55 am 05:55 Clear 24 -4.5 21 -6.1 89 89 NNW 8 13 30.23 1024 10 16.0934 0 0
6:15 am 06:15 Clear 24 -4.2 21 -6 87 87 NW 10 17 30.24 1024 10 16.0934 0 0
6:35 am 06:35 Clear 25 -4.1 21 -6.1 86 86 NNW 8 13 30.25 1024 10 16.0934 0 0
6:55 am 06:55 Clear 24 -4.2 21 -6.2 86 86 NW 8 13 30.26 1025 10 16.0934 0 0
7:15 am 07:15 Clear 24 -4.5 20 -6.5 86 86 NW 8 13 30.27 1025 10 16.0934 0 0
7:35 am 07:35 Clear 22 -5.6 19 -7.1 89 89 NW 5 7 30.28 1025 10 16.0934 0 0
7:55 am 07:55 Clear 22 -5.8 19 -7.1 91 91 NW 5 7 30.28 1025 10 16.0934 0 0
8:15 am 08:15 Sunny 22 -5.3 20 -6.6 91 91 NW 6 9 30.29 1026 10 16.0934 0 0
8:35 am 08:35 Sunny 25 -3.8 21 -6 85 85 NW 6 9 30.27 1025 10 16.0934 0 0
8:55 am 08:55 Sunny 27 -3 22 -5.6 82 82 NW 7 11 30.27 1025 10 16.0934 0 0
9:15 am 09:15 Sunny 29 -1.5 23 -4.8 78 78 NNW 9 15 30.27 1025 10 16.0934 0 0
9:35 am 09:35 Sunny 31 -0.6 24 -4.7 74 74 NNW 10 17 30.27 1025 10 16.0934 0 0
9:55 am 09:55 Sunny 33 0.3 24 -4.4 71 71 NNW 9 15 30.27 1025 10 16.0934 0 0
10:15 am 10:15 Sunny 35 1.4 25 -4.1 67 67 NNW 9 15 30.27 1025 10 16.0934 0 0
10:35 am 10:35 Sunny 37 2.9 24 -4.5 59 59 N 10 17 30.26 1025 10 16.0934 0 0
10:55 am 10:55 Sunny 38 3.5 24 -4.6 56 56 N 10 17 30.26 1025 10 16.0934 0 0
11:15 am 11:15 Sunny 39 4.1 24 -4.2 55 55 NNW 10 17 30.26 1025 10 16.0934 0 0
11:35 am 11:35 Sunny 40 4.6 24 -4.5 52 52 N 7 11 30.24 1024 10 16.0934 0 0
11:55 am 11:55 Sunny 41 5 25 -4.1 52 52 N 8 13 30.24 1024 10 16.0934 0 0
12:15 pm 12:15 Sunny 42 5.7 25 -4 50 50 N 8 13 30.21 1023 10 16.0934 0 0
12:35 pm 12:35 Sunny 44 6.5 24 -4.3 46 46 N 8 13 30.21 1023 10 16.0934 0 0
12:55 pm 12:55 Sunny 44 6.9 25 -4 46 46 NNW 7 11 30.2 1023 10 16.0934 0 0
1:15 pm 13:15 Sunny 45 7.3 25 -4.1 45 45 NNW 7 11 30.2 1023 10 16.0934 0 0
1:35 pm 13:35 Sunny 46 7.6 24 -4.4 43 43 N 7 11 30.18 1022 10 16.0934 0 0
1:55 pm 13:55 Sunny 47 8.2 24 -4.4 41 41 NNW 6 9 30.19 1022 10 16.0934 0 0
2:15 pm 14:15 Sunny 48 8.9 24 -4.3 39 39 NNW 5 7 30.18 1022 10 16.0934 0 0
2:35 pm 14:35 Sunny 48 8.7 23 -4.8 38 38 N 3 6 30.19 1022 10 16.0934 0 0
2:55 pm 14:55 Sunny 48 9 25 -4 40 40 NW 6 9 30.19 1022 10 16.0934 0 0
3:15 pm 15:15 Sunny 48 9 25 -3.9 40 40 NNW 3 6 30.18 1022 10 16.0934 0 0
3:35 pm 15:35 Sunny 48 8.7 25 -4.1 41 41 Calm 30.17 1022 10 16.0934 0 0
3:55 pm 15:55 Sunny 48 9 24 -4.2 39 39 Calm 30.19 1022 10 16.0934 0 0
4:15 pm 16:15 Sunny 47 8.5 25 -4.1 41 41 Calm 30.22 1023 10 16.0934 0 0
4:35 pm 16:35 Sunny 46 7.8 24 -4.5 42 42 Calm 30.22 1023 10 16.0934 0 0
4:55 pm 16:55 Sunny 44 6.9 24 -4.7 44 44 WNW 3 6 30.24 1024 10 16.0934 0 0
5:15 pm 17:15 Clear 42 5.5 24 -4.6 49 49 Calm 30.25 1025 10 16.0934 0 0
5:35 pm 17:35 Clear 40 4.4 24 -4.5 53 53 Calm 30.26 1025 10 16.0934 0 0
5:55 pm 17:55 Clear 36 2.1 22 -5.4 58 58 Calm 30.3 1026 10 16.0934 0 0
6:15 pm 18:15 Clear 36 2.4 23 -4.8 59 59 Calm 30.29 1026 10 16.0934 0 0
6:35 pm 18:35 Clear 33 0.3 23 -5.2 67 67 S 3 6 30.31 1027 10 16.0934 0 0
6:55 pm 18:55 Clear 31 -0.4 22 -5.5 69 69 S 3 6 30.32 1027 10 16.0934 0 0
7:15 pm 19:15 Clear 31 -0.7 22 -5.4 71 71 SSW 5 7 30.33 1027 10 16.0934 0 0
7:35 pm 19:35 Clear 32 0.2 23 -5.2 67 67 SSW 5 7 30.32 1027 10 16.0934 0 0
7:55 pm 19:55 Clear 32 0.1 22 -5.4 67 67 S 3 6 30.32 1027 10 16.0934 0 0
8:15 pm 20:15 Clear 29 -1.4 21 -6.1 71 71 S 5 7 30.34 1027 10 16.0934 0 0
8:35 pm 20:35 Clear 34 1 22 -5.4 63 63 SSW 5 7 30.32 1027 10 16.0934 0 0
8:55 pm 20:55 Clear 32 0.1 22 -5.5 66 66 S 5 7 30.32 1027 10 16.0934 0 0
9:15 pm 21:15 Clear 30 -0.9 21 -6.3 67 67 SSW 5 7 30.33 1027 10 16.0934 0 0
9:35 pm 21:35 Clear 33 0.3 22 -5.4 66 66 SSW 5 7 30.32 1027 10 16.0934 0 0
9:55 pm 21:55 Clear 33 0.4 22 -5.5 65 65 SSW 3 6 30.33 1027 10 16.0934 0 0
10:15 pm 22:15 Clear 32 -0.1 22 -5.7 66 66 SSW 5 7 30.34 1027 10 16.0934 0 0
10:35 pm 22:35 Clear 31 -0.8 22 -5.8 69 69 SSW 7 11 30.34 1028 10 16.0934 0 0
10:55 pm 22:55 Clear 32 0 22 -5.5 67 67 SSW 8 13 30.34 1027 10 16.0934 0 0
11:15 pm 23:15 Clear 33 0.5 22 -5.6 64 64 SSW 7 11 30.33 1027 10 16.0934 0 0
11:35 pm 23:35 Clear 32 0 22 -5.7 66 66 SSW 5 7 30.34 1027 10 16.0934 0 0
11:55 pm 23:55 Clear 31 -0.3 21 -5.9 66 66 SSW 7 11 30.34 1027 10 16.0934 0 0

Powered by AerisWeather